THORAD AGENA D DEB, 42535

Orbit data source: Space-Track

THORAD AGENA D DEB, 42535 is space debris in SSO originally from a launch on Wed, 08 Apr 1970 UTC launched from the Air Force Western Test Range (AFWTR). Debris objects in space refer to the collection of defunct objects orbiting the Earth. Examples of debris include non-operational satellites, rocket bodies, and fragments generated from explosions, collisions, or faulty payload assembly.

Loading next visibility...
Identifier
42535, 1970-025SR
Orbit
SSO
Country
Flag of USUS
Related business
Manufacturer
Unknown
Mission
Spacecraft
Bus & Motor
Unknown
Mass
Unknown
Launch date (UTC)
1970-04-08 (56 years ago)
Launch vehicle
Unknown
Launch site
Air Force Western Test Range (AFWTR)
Object type
Payload
Rocket body
Debris
Shape & HBR
Unknown shape, 0.1 m
Radar Cross Section
Medium (>0.1 m² and <1 m²)

Expand to show TLE details & history
Last TLE update: 8 hours ago

TLE from 8 hours ago
0 THORAD AGENA D DEB
1 42535U 70025SR  26169.60009327  .00001532  00000-0  14301-2 0  9996
2 42535  99.8544 122.2846 0070519 264.2756  95.0352 13.82543145630200
Epoch: 2026-06-18T14:24Z
TLE epoch observation values (Epoch: 2026-06-18T14:24:08.058Z)
Latitude
-0.00006°
Longitude
-0.59006°
Altitude
962.606 km
Speed
7.368 km/s
True Right ascension
08h 09m 08s
True Declination
0° 00' 00"
Sunlit
Object was in daylight at epoch
Visualization orbit readout
Latitude
Unknown
Longitude
Unknown
Altitude
Unknown
Speed
Unknown
Apparent Right ascension
Unknown
Apparent Declination
Unknown
Sunlit
N/A
Visualization observer readout
Local Sidereal Time
08:51:17
Azimuth
Unknown
Elevation
Unknown
Doppler factor
Unknown
Orbital elements
Apogee altitude
1,003.839 km
Perigee altitude
900.454 km
Semi-major axis
7,330.283 km
Eccentricity
0.00705
Inclination
99.8544°
RAAN
122.2846°
Arg. of periapsis
264.2756°
True anomaly
95.83952°
Mean anomaly
95.0352°
Eccentric anomaly
95.43743°
Mean motion
3.45829 °/min
Orbital period
104.1 mins
BSTAR
0.0014301
Loading maneuver chart data...
Computing Atmospheric mass density...

Documentation

Showing up to 5 results
|